FW2343 Weather Reports


time (UTC)temp
C
wind
direction
speed
KPH
gust
KPH
rain 1hr
cm
rain 24hr
cm
rain mn
cm
humidity
%
barometer
mb
20260510081705 17 71 1.6 14.5 0.00 0.20 0.00 77 1010.0
20260510081218 17 22 1.6 4.8 0.00 0.20 0.00 78 1009.9
20260510080717 17 344 0.0 4.8 0.00 0.20 0.00 80 1009.8
20260510075714 16 0 0.0 0.0 0.00 0.20 0.00 80 1010.0
20260510075212 16 0 0.0 0.0 0.00 0.20 0.00 81 1010.0
20260510074719 16 0 0.0 0.0 0.00 0.20 0.00 80 1009.9
20260510073719 16 0 0.0 0.0 0.00 0.20 0.00 83 1009.9
20260510073216 16 0 0.0 0.0 0.00 0.20 0.00 85 1010.0
20260510072706 15 0 0.0 0.0 0.00 0.20 0.00 86 1010.0
20260510072206 15 0 0.0 0.0 0.00 0.20 0.00 86 1010.0
20260510071713 15 0 0.0 0.0 0.00 0.20 0.00 88 1010.1
20260510071210 14 0 0.0 0.0 0.00 0.20 0.00 89 1010.1
20260510070714 14 0 0.0 4.8 0.00 0.20 0.00 91 1009.9
20260510065711 13 216 0.0 4.8 0.00 0.20 0.00 92 1010.0
20260510065216 13 210 0.0 0.0 0.00 0.20 0.00 92 1009.9
20260510064710 13 0 0.0 1.6 0.00 0.20 0.00 92 1009.9
20260510064216 12 0 0.0 1.6 0.00 0.20 0.00 93 1009.9
20260510063712 12 146 0.0 0.0 0.00 0.20 0.00 93 1010.0
20260510063208 12 0 0.0 1.6 0.00 0.20 0.00 94 1010.0
20260510062714 12 0 0.0 1.6 0.00 0.20 0.00 94 1010.0
20260510062214 12 146 0.0 1.6 0.00 0.20 0.00 94 1010.1
20260510061712 12 0 0.0 1.6 0.00 0.20 0.00 94 1010.1
20260510060706 12 120 0.0 3.2 0.00 0.20 0.00 94 1010.1
20260510060238 12 0 0.0 3.2 0.00 0.20 0.00 95 1009.9
20260510055707 11 164 0.0 3.2 0.00 0.20 0.00 96 1010.1
20260510055211 11 118 1.6 3.2 0.00 0.20 0.00 95 1010.2
20260510054713 11 0 0.0 0.0 0.00 0.20 0.00 95 1010.1
20260510054220 11 0 0.0 3.2 0.00 0.20 0.00 96 1010.2
20260510053715 11 0 0.0 3.2 0.00 0.20 0.00 96 1010.1
20260510052708 10 150 1.6 0.0 0.00 0.20 0.00 96 1010.1
20260510052206 10 0 0.0 0.0 0.00 0.20 0.00 95 1010.1
20260510051211 10 0 0.0 3.2 0.00 0.20 0.00 95 1010.1
20260510050705 10 164 0.0 3.2 0.00 0.20 0.00 95 1010.1
20260510050211 10 165 0.0 0.0 0.00 0.20 0.00 95 1010.0
20260510044717 10 0 0.0 0.0 0.00 0.20 0.00 95 1010.1
20260510044219 10 0 0.0 3.2 0.00 0.20 0.00 95 1010.1
20260510043209 10 215 1.6 3.2 0.00 0.20 0.00 95 1010.1
20260510042720 10 217 0.0 0.0 0.00 0.20 0.00 95 1010.2
20260510042215 10 0 0.0 0.0 0.00 0.20 0.00 95 1010.2
20260510041717 10 0 0.0 1.6 0.00 0.20 0.00 95 1010.2
20260510040705 10 104 0.0 3.2 0.00 0.20 0.00 94 1010.3
20260510040212 11 126 0.0 4.8 0.00 0.20 0.00 94 1010.4
20260510035716 11 172 3.2 4.8 0.00 0.20 0.00 95 1010.4
20260510035215 11 153 0.0 4.8 0.00 0.20 0.00 95 1010.4
20260510034719 11 209 0.0 4.8 0.00 0.20 0.00 95 1010.4
20260510033709 11 187 1.6 3.2 0.00 0.20 0.00 95 1010.5
20260510032713 11 310 0.0 3.2 0.00 0.20 0.00 94 1010.4
20260510032216 11 11 1.6 3.2 0.00 0.20 0.00 94 1010.4
20260510031714 11 348 0.0 3.2 0.00 0.20 0.00 94 1010.4
20260510031207 11 277 0.0 3.2 0.00 0.20 0.00 94 1010.5
20260510030711 11 163 0.0 3.2 0.00 0.20 0.00 94 1010.5
20260510025707 11 0 0.0 3.2 0.00 0.20 0.00 94 1010.6
20260510025205 11 236 0.0 3.2 0.00 0.20 0.00 94 1010.6
20260510024710 11 244 0.0 4.8 0.00 0.20 0.00 94 1010.7
20260510024214 11 219 1.6 4.8 0.00 0.20 0.00 94 1010.6
20260510023214 12 187 0.0 8.0 0.00 0.20 0.00 93 1010.6
20260510022207 12 43 3.2 6.4 0.00 0.20 0.00 93 1010.5
20260510021712 12 57 3.2 9.7 0.00 0.20 0.00 93 1010.5
20260510021219 12 358 4.8 9.7 0.00 0.20 0.00 94 1010.5
20260510020719 12 22 4.8 6.4 0.00 0.20 0.00 94 1010.4
20260510020212 12 45 1.6 6.4 0.00 0.20 0.00 93 1010.5
20260510015218 12 355 0.0 0.0 0.00 0.20 0.00 93 1010.6
20260510014714 12 0 0.0 3.2 0.00 0.20 0.00 93 1010.7
20260510013709 12 341 0.0 3.2 0.00 0.20 0.00 93 1010.9
20260510013208 12 0 0.0 1.6 0.00 0.20 0.00 93 1011.0
20260510012714 12 260 0.0 1.6 0.00 0.20 0.00 93 1011.1
20260510011705 12 0 0.0 6.4 0.00 0.20 0.00 93 1011.2
20260510011210 12 355 1.6 8.0 0.00 0.20 0.00 93 1011.2
20260510010737 13 21 3.2 9.7 0.00 0.20 0.00 93 1011.1
20260510010214 13 22 4.8 11.3 0.00 0.20 0.00 93 1011.1
20260510005208 13 21 8.0 11.3 0.00 0.20 0.00 93 1011.0
20260510004213 13 347 3.2 8.0 0.00 0.20 0.00 93 1011.2
20260510003714 13 8 4.8 8.0 0.00 0.20 0.00 93 1011.3
20260510003206 13 358 3.2 8.0 0.00 0.20 0.00 93 1011.4
20260510002711 13 29 4.8 11.3 0.00 0.20 0.00 93 1011.3
20260510002220 13 25 4.8 11.3 0.00 0.20 0.00 92 1011.3
20260510001710 13 39 6.4 12.9 0.00 0.20 0.00 92 1011.2
20260510000713 13 39 6.4 14.5 0.00 0.20 0.00 92 1011.1
20260510000215 13 60 6.4 14.5 0.00 0.20 0.00 92 1011.2
20260509235208 13 37 8.0 14.5 0.00 0.20 0.00 93 1011.1
20260509234718 13 39 8.0 14.5 0.00 0.20 0.00 93 1011.3
20260509234210 13 7 8.0 14.5 0.00 0.20 0.00 93 1011.4
20260509233711 13 47 9.7 16.1 0.00 0.20 0.00 93 1011.5
20260509232719 13 22 11.3 17.7 0.00 0.20 0.00 93 1012.0
20260509232207 13 19 11.3 17.7 0.00 0.20 0.00 93 1012.0
20260509231706 13 28 11.3 17.7 0.00 0.20 0.00 93 1011.9
20260509231218 13 9 11.3 16.1 0.00 0.20 0.00 93 1012.0
20260509230710 13 28 9.7 16.1 0.00 0.20 0.00 93 1012.2
20260509230209 13 23 11.3 16.1 0.00 0.20 0.00 93 1012.3
20260509225708 13 22 8.0 16.1 0.03 0.20 0.00 93 1012.2
20260509225209 13 45 6.4 16.1 0.03 0.20 0.00 93 1012.2
20260509224706 13 30 9.7 14.5 0.05 0.20 0.00 93 1012.2
20260509224211 13 5 8.0 16.1 0.05 0.20 0.00 93 1012.2
20260509223717 13 43 8.0 16.1 0.05 0.20 0.00 93 1012.1
20260509223215 13 23 9.7 14.5 0.08 0.20 0.00 93 1012.0
20260509222716 13 18 9.7 14.5 0.10 0.20 0.00 93 1012.0
20260509222207 13 19 8.0 12.9 0.10 0.20 0.00 93 1012.0
20260509221709 13 29 8.0 12.9 0.13 0.20 0.00 93 1012.0
20260509221206 13 2 9.7 12.9 0.13 0.20 0.00 93 1012.2
20260509220718 13 9 8.0 11.3 0.13 0.20 0.00 93 1012.0
20260509215719 14 25 6.4 14.5 0.15 0.18 0.18 92 1012.0
20260509215215 14 15 9.7 14.5 0.15 0.18 0.18 92 1012.1
20260509214713 14 30 6.4 12.9 0.15 0.15 0.15 92 1012.2
20260509214215 14 18 8.0 11.3 0.13 0.15 0.15 91 1012.2
20260509213711 14 21 6.4 11.3 0.13 0.13 0.13 91 1012.2
20260509213209 14 358 6.4 11.3 0.10 0.10 0.10 91 1012.2
20260509212716 14 16 4.8 9.7 0.10 0.10 0.10 91 1012.2
20260509212215 14 22 6.4 14.5 0.10 0.10 0.10 91 1012.1
20260509211714 14 16 6.4 14.5 0.08 0.08 0.08 91 1012.1
20260509211213 14 15 8.0 14.5 0.08 0.08 0.08 90 1012.0
20260509210713 14 14 1.6 8.0 0.05 0.05 0.05 89 1012.0
20260509210216 14 28 1.6 8.0 0.05 0.05 0.05 88 1011.9
20260509205706 14 5 3.2 8.0 0.05 0.05 0.05 88 1011.9
20260509205212 14 11 4.8 11.3 0.05 0.05 0.05 88 1011.9
20260509204214 15 49 6.4 14.5 0.03 0.03 0.03 86 1011.7
20260509203709 15 37 8.0 16.1 0.00 0.00 0.00 85 1011.7
20260509203207 15 30 8.0 16.1 0.00 0.00 0.00 84 1011.6
20260509202718 15 33 8.0 11.3 0.00 0.00 0.00 83 1011.5
20260509202216 15 33 6.4 12.9 0.00 0.00 0.00 81 1011.4
20260509201718 15 56 6.4 12.9 0.00 0.00 0.00 80 1011.4
20260509200719 16 47 6.4 9.7 0.00 0.00 0.00 78 1011.2
20260509200205 16 122 4.8 11.3 0.00 0.00 0.00 76 1011.1
20260509195711 16 84 4.8 14.5 0.00 0.00 0.00 75 1010.9
20260509195214 16 97 6.4 14.5 0.00 0.00 0.00 74 1010.9
20260509194718 16 37 9.7 14.5 0.00 0.00 0.00 74 1010.7
20260509194212 16 68 9.7 17.7 0.00 0.00 0.00 73 1010.6
20260509193715 16 56 9.7 20.9 0.00 0.00 0.00 73 1010.6
20260509193212 16 78 9.7 24.1 0.00 0.00 0.00 73 1010.5
20260509192718 16 49 9.7 24.1 0.00 0.00 0.00 72 1010.3
20260509192212 16 80 11.3 25.7 0.00 0.00 0.00 71 1010.3
20260509191711 16 111 11.3 25.7 0.00 0.00 0.00 71 1010.1
20260509191214 16 66 12.9 24.1 0.00 0.00 0.00 69 1010.1
20260509190709 16 88 14.5 24.1 0.00 0.00 0.00 69 1010.1
20260509190216 16 59 14.5 25.7 0.00 0.00 0.00 68 1010.0
20260509185714 16 40 11.3 27.4 0.00 0.00 0.00 67 1010.0
20260509185219 16 57 14.5 27.4 0.00 0.00 0.00 66 1010.0
20260509184214 17 91 11.3 22.5 0.00 0.00 0.00 65 1010.0
20260509183709 17 102 11.3 27.4 0.00 0.00 0.00 64 1009.9
20260509183208 17 50 8.0 27.4 0.00 0.00 0.00 63 1010.0
20260509181716 17 67 8.0 16.1 0.00 0.00 0.00 59 1009.7
20260509181205 17 67 6.4 16.1 0.00 0.00 0.00 58 1009.8
20260509180715 17 16 9.7 19.3 0.00 0.00 0.00 59 1009.8
20260509180217 17 75 8.0 25.7 0.00 0.00 0.00 58 1009.9
20260509175709 17 43 9.7 25.7 0.00 0.00 0.00 58 1009.9
20260509175209 17 74 11.3 25.7 0.00 0.00 0.00 58 1010.0
20260509174708 17 46 9.7 22.5 0.00 0.00 0.00 58 1010.0
20260509174218 17 56 11.3 22.5 0.00 0.00 0.00 59 1009.9
20260509173719 17 39 11.3 19.3 0.00 0.00 0.00 58 1010.0
20260509173216 17 71 8.0 19.3 0.00 0.00 0.00 58 1010.0
20260509172217 18 57 6.4 20.9 0.00 0.00 0.00 59 1009.9
20260509170705 17 77 4.8 16.1 0.00 0.00 0.00 61 1009.9
20260509170219 18 40 9.7 16.1 0.00 0.00 0.00 63 1010.0
20260509165716 17 73 9.7 19.3 0.00 0.00 0.00 63 1010.0
20260509165211 17 74 9.7 20.9 0.00 0.00 0.00 63 1009.9
20260509164708 18 45 11.3 20.9 0.00 0.00 0.00 63 1009.9
20260509164206 18 106 9.7 22.5 0.00 0.00 0.00 63 1009.9
20260509163212 18 49 14.5 24.1 0.00 0.00 0.00 62 1009.9
20260509162714 18 45 12.9 19.3 0.00 0.00 0.00 62 1009.8
20260509162210 18 32 11.3 19.3 0.00 0.00 0.00 61 1009.9
20260509161708 18 46 8.0 27.4 0.00 0.00 0.00 62 1009.8
20260509161229 18 97 9.7 27.4 0.00 0.00 0.00 63 1009.6
20260509160214 18 28 11.3 27.4 0.00 0.00 0.00 65 1009.5
20260509155715 18 53 12.9 27.4 0.00 0.00 0.00 66 1009.5
20260509155218 18 70 12.9 27.4 0.00 0.00 0.00 65 1009.5
20260509154713 18 47 14.5 22.5 0.00 0.00 0.00 65 1009.5
20260509154220 18 67 11.3 22.5 0.00 0.00 0.00 65 1009.7
20260509152211 18 78 8.0 22.5 0.00 0.00 0.00 66 1010.2
20260509151716 18 40 9.7 22.5 0.00 0.00 0.00 66 1010.3
20260509151213 18 54 11.3 22.5 0.00 0.00 0.00 67 1010.4
20260509150719 18 68 12.9 24.1 0.00 0.00 0.00 68 1010.4
20260509150219 18 60 11.3 24.1 0.00 0.00 0.00 67 1010.5
20260509145707 18 67 12.9 30.6 0.00 0.00 0.00 67 1010.5
20260509145211 18 90 9.7 30.6 0.00 0.00 0.00 67 1010.5
20260509144705 19 32 9.7 25.7 0.00 0.00 0.00 67 1010.6
20260509144210 19 133 11.3 24.1 0.00 0.00 0.00 66 1010.6
20260509143712 19 61 9.7 32.2 0.00 0.00 0.00 66 1010.6
20260509143211 19 70 12.9 32.2 0.00 0.00 0.00 67 1010.7
20260509142217 19 52 14.5 24.1 0.00 0.00 0.00 68 1010.8
20260509141719 18 77 14.5 30.6 0.00 0.00 0.00 68 1010.8
20260509141217 19 66 12.9 30.6 0.00 0.00 0.00 67 1010.9
20260509140714 19 84 14.5 27.4 0.00 0.00 0.00 67 1011.0
20260509140215 18 80 14.5 30.6 0.00 0.00 0.00 68 1011.0
20260509135707 18 52 14.5 30.6 0.00 0.00 0.00 67 1011.0
20260509135213 18 49 16.1 30.6 0.00 0.00 0.00 68 1011.0
20260509134213 18 49 14.5 25.7 0.00 0.00 0.00 67 1011.1
20260509133712 19 59 14.5 27.4 0.00 0.00 0.00 67 1011.2
20260509133216 19 73 14.5 29.0 0.00 0.00 0.00 67 1011.1
20260509132713 19 39 16.1 30.6 0.00 0.00 0.00 66 1011.3
20260509132218 19 28 14.5 35.4 0.00 0.00 0.00 66 1011.2
20260509131744 19 8 17.7 35.4 0.00 0.00 0.00 66 1011.2
20260509131238 19 28 17.7 35.4 0.00 0.00 0.00 66 1011.1
20260509130719 19 11 16.1 35.4 0.00 0.00 0.00 65 1011.3
20260509130206 19 71 12.9 35.4 0.00 0.00 0.00 64 1011.4
20260509125217 20 15 12.9 30.6 0.00 0.00 0.00 65 1011.5
20260509124713 20 68 11.3 30.6 0.00 0.00 0.00 64 1011.4
20260509124212 20 57 12.9 30.6 0.00 0.00 0.00 62 1011.5
20260509123705 20 61 16.1 37.0 0.00 0.00 0.00 62 1011.4
20260509123207 20 74 17.7 37.0 0.00 0.00 0.00 62 1011.4
20260509122206 20 67 17.7 32.2 0.00 0.00 0.00 61 1011.3
20260509121709 20 94 14.5 37.0 0.00 0.00 0.00 62 1011.4
20260509121241 20 75 16.1 40.2 0.00 0.00 0.00 60 1011.4
20260509120738 20 59 20.9 40.2 0.00 0.00 0.00 61 1011.3
20260509120215 20 60 19.3 29.0 0.00 0.00 0.00 62 1011.4
20260509115710 20 82 12.9 32.2 0.00 0.00 0.00 61 1011.4
20260509114707 20 64 20.9 33.8 0.00 0.00 0.00 62 1011.4
20260509113210 20 63 14.5 33.8 0.00 0.00 0.00 62 1012.0
20260509112717 20 56 19.3 29.0 0.00 0.00 0.00 62 1012.0
20260509112232 20 47 11.3 29.0 0.00 0.00 0.00 62 1012.0
20260509111206 20 57 11.3 29.0 0.00 0.00 0.00 63 1011.9
20260509110208 20 46 14.5 30.6 0.00 0.00 0.00 64 1012.1
20260509105710 20 97 16.1 30.6 0.00 0.00 0.00 64 1012.2
20260509104711 20 50 16.1 32.2 0.00 0.00 0.00 65 1012.2
20260509104207 20 29 17.7 27.4 0.00 0.00 0.00 65 1012.1
20260509103708 19 60 16.1 27.4 0.00 0.00 0.00 66 1012.1
20260509103217 19 87 14.5 32.2 0.00 0.00 0.00 67 1012.1
20260509102708 19 22 14.5 32.2 0.00 0.00 0.00 66 1012.1
20260509102217 19 59 17.7 32.2 0.00 0.00 0.00 67 1012.1
20260509101715 19 47 14.5 27.4 0.00 0.00 0.00 68 1012.1
20260509100713 19 74 16.1 24.1 0.00 0.00 0.00 68 1012.3
20260509100210 19 37 14.5 24.1 0.00 0.00 0.00 68 1012.2
20260509095711 19 70 14.5 24.1 0.00 0.00 0.00 67 1012.2
20260509095213 19 30 8.0 22.5 0.00 0.00 0.00 68 1012.2
20260509094719 19 73 9.7 22.5 0.00 0.00 0.00 67 1012.3
20260509094216 19 77 11.3 25.7 0.00 0.00 0.00 68 1012.3
20260509093710 19 57 11.3 25.7 0.00 0.00 0.00 69 1012.1
20260509093218 18 112 9.7 25.7 0.00 0.00 0.00 68 1012.1
20260509092706 19 56 11.3 24.1 0.00 0.00 0.00 68 1012.2
20260509091710 19 37 11.3 27.4 0.00 0.00 0.00 68 1012.2
20260509090742 19 45 14.5 29.0 0.00 0.00 0.00 68 1012.1
20260509090217 19 23 16.1 27.4 0.00 0.00 0.00 69 1012.1
20260509085707 18 19 9.7 27.4 0.00 0.00 0.00 69 1012.0
20260509085218 18 40 12.9 27.4 0.00 0.00 0.00 68 1012.1
20260509084705 18 81 11.3 25.7 0.00 0.00 0.00 69 1012.0
20260509084227 18 73 9.7 25.7 0.00 0.00 0.00 68 1012.0
20260509083211 18 73 9.7 20.9 0.00 0.00 0.00 68 1012.3
20260509082704 18 46 11.3 25.7 0.00 0.00 0.00 69 1012.4
20260509082214 18 354 14.5 25.7 0.00 0.00 0.00 70 1012.4